KA4JMC Weather Reports


Display with metric or nautical units.
time (UTC)temp
F
wind
direction
speed
MPH
gust
MPH
rain 1hr
in
rain 24hr
in
rain mn
in
humidity
%
barometer
mb
20260505230535 55 248 0.0 0.0 0.00 0.00 0.00 981.8
20260505230018 55 243 0.0 0.0 0.00 0.00 0.00 982.8
20260505225514 55 290 0.0 0.0 0.00 0.00 0.00 982.8
20260505225016 55 337 0.0 3.0 0.00 0.00 0.00 982.8
20260505224513 56 198 0.0 0.0 0.00 0.00 0.00 981.8
20260505224015 56 331 3.0 0.0 0.00 0.00 0.00 981.8
20260505223513 56 334 4.0 4.0 0.00 0.00 0.00 981.8
20260505223014 56 295 0.0 0.0 0.00 0.00 0.00 981.8
20260505222513 56 184 0.0 0.0 0.00 0.00 0.00 981.8
20260505222020 56 303 0.0 0.0 0.00 0.00 0.00 981.8
20260505221514 56 105 2.0 0.0 0.00 0.00 0.00 981.8
20260505221014 56 345 0.0 0.0 0.00 0.00 0.00 981.8
20260505220514 56 154 0.0 4.0 0.00 0.00 0.00 981.8
20260505220015 57 279 0.0 0.0 0.00 0.00 0.00 981.8
20260505215514 57 264 3.0 2.0 0.00 0.00 0.00 981.8
20260505215013 57 331 0.0 5.0 0.00 0.00 0.00 981.8
20260505214514 57 326 3.0 5.0 0.00 0.00 0.00 981.8
20260505214016 57 204 0.0 0.0 0.00 0.00 0.00 981.8
20260505213522 57 263 2.0 4.0 0.00 0.00 0.00 981.8
20260505213021 57 338 3.0 0.0 0.00 0.00 0.00 981.8
20260505212515 57 8 0.0 0.0 0.00 0.00 0.00 981.8
20260505212035 58 276 0.0 0.0 0.00 0.00 0.00 981.8
20260505211519 58 142 0.0 2.0 0.00 0.00 0.00 981.8
20260505211023 58 0 0.0 6.0 0.00 0.00 0.00 981.8
20260505210516 58 326 4.0 3.0 0.00 0.00 0.00 981.8
20260505210014 58 181 3.0 3.0 0.00 0.00 0.00 981.8
20260505205514 58 295 4.0 4.0 0.00 0.00 0.00 981.8
20260505205020 57 328 2.0 0.0 0.00 0.00 0.00 981.8
20260505204514 57 344 0.0 4.0 0.00 0.00 0.00 981.8
20260505204018 58 326 5.0 4.0 0.00 0.00 0.00 981.8
20260505203514 58 147 2.0 3.0 0.00 0.00 0.00 981.8
20260505203019 58 323 3.0 3.0 0.00 0.00 0.00 982.8
20260505202514 58 304 0.0 4.0 0.00 0.00 0.00 982.8
20260505202015 58 320 0.0 3.0 0.00 0.00 0.00 982.8
20260505201520 58 312 3.0 3.0 0.00 0.00 0.00 982.8
20260505201014 59 3 0.0 0.0 0.00 0.00 0.00 982.8
20260505200518 59 316 0.0 8.0 0.00 0.00 0.00 982.8
20260505200015 59 0 0.0 0.0 0.00 0.00 0.00 982.8
20260505195514 59 327 2.0 4.0 0.00 0.00 0.00 982.8
20260505195014 59 341 4.0 3.0 0.00 0.00 0.00 982.8
20260505194513 59 321 0.0 0.0 0.00 0.00 0.00 981.8
20260505194017 59 323 3.0 6.0 0.00 0.00 0.00 981.8
20260505193514 59 353 3.0 4.0 0.00 0.00 0.00 981.8
20260505193018 59 136 0.0 0.0 0.00 0.00 0.00 982.8
20260505192513 59 216 2.0 0.0 0.00 0.00 0.00 982.8
20260505192014 59 2 3.0 3.0 0.00 0.00 0.00 982.8
20260505191513 60 350 3.0 3.0 0.00 0.00 0.00 982.8
20260505191014 59 304 0.0 0.0 0.00 0.00 0.00 982.8
20260505190514 60 286 5.0 0.0 0.00 0.00 0.00 982.8
20260505190013 60 190 0.0 0.0 0.00 0.00 0.00 982.8
20260505185517 60 327 4.0 3.0 0.00 0.00 0.00 982.8
20260505185014 60 301 4.0 7.0 0.00 0.00 0.00 982.8
20260505184514 60 340 6.0 8.0 0.00 0.00 0.00 982.8
20260505184014 59 186 4.0 3.0 0.00 0.00 0.00 982.8
20260505183513 59 236 3.0 0.0 0.00 0.00 0.00 982.8
20260505183015 60 329 4.0 6.0 0.00 0.00 0.00 982.8
20260505182515 60 180 0.0 3.0 0.00 0.00 0.00 982.8
20260505182014 60 333 0.0 8.0 0.00 0.00 0.00 982.8
20260505181513 61 264 0.0 8.0 0.00 0.00 0.00 982.8
20260505181014 61 2 0.0 0.0 0.00 0.00 0.00 982.8
20260505180535 61 136 2.0 0.0 0.00 0.00 0.00 982.8
20260505180025 61 202 4.0 5.0 0.00 0.00 0.00 981.8
20260505175526 60 267 0.0 0.0 0.00 0.00 0.00 981.8
20260505175026 60 316 4.0 10.0 0.00 0.00 0.00 981.8
20260505174513 60 326 0.0 0.0 0.00 0.00 0.00 981.8
20260505174013 59 177 3.0 4.0 0.00 0.00 0.00 981.8
20260505173537 60 325 3.0 3.0 0.00 0.00 0.00 981.8
20260505173016 59 298 3.0 4.0 0.00 0.00 0.00 981.8
20260505172535 59 201 4.0 6.0 0.00 0.00 0.00 981.8
20260505172013 58 221 2.0 2.0 0.00 0.00 0.00 981.8
20260505171519 58 334 4.0 3.0 0.00 0.00 0.00 981.8
20260505171018 58 338 6.0 6.0 0.00 0.00 0.00 981.8
20260505170523 58 324 4.0 4.0 0.00 0.00 0.00 981.8
20260505165521 57 270 2.0 4.0 0.00 0.00 0.00 982.8
20260505165014 57 0 0.0 0.0 0.00 0.00 0.00 982.8
20260505164514 56 200 4.0 5.0 0.00 0.00 0.00 981.8
20260505164017 56 357 3.0 2.0 0.00 0.00 0.00 981.8
20260505163518 56 346 0.0 0.0 0.00 0.00 0.00 981.8
20260505163015 56 302 3.0 6.0 0.00 0.00 0.00 981.8
20260505162516 56 10 0.0 5.0 0.00 0.00 0.00 981.8
20260505162022 55 155 0.0 2.0 0.00 0.00 0.00 981.8
20260505161535 55 334 4.0 5.0 0.00 0.00 0.00 982.8
20260505161014 54 346 4.0 0.0 0.00 0.00 0.00 982.8
20260505160534 54 14 4.0 5.0 0.00 0.00 0.00 982.8
20260505153015 53 27 3.0 0.0 0.00 0.00 0.00 981.8
20260505152518 53 162 0.0 0.0 0.00 0.00 0.00 981.8
20260505152035 53 268 0.0 3.0 0.00 0.00 0.00 981.8
20260505151516 53 322 5.0 4.0 0.00 0.00 0.00 981.8
20260505151014 52 335 0.0 0.0 0.00 0.00 0.00 981.8
20260505150513 52 285 2.0 0.0 0.00 0.00 0.00 981.8
20260505140514 50 214 0.0 0.0 0.00 0.00 0.00 981.8
20260505125017 49 335 0.0 0.0 0.00 0.00 0.00 982.8
20260505124514 49 334 2.0 0.0 0.00 0.00 0.00 981.8
20260505124014 49 344 0.0 0.0 0.00 0.00 0.00 981.8
20260505123513 48 345 0.0 0.0 0.00 0.00 0.00 981.8
20260505123016 48 305 0.0 0.0 0.00 0.00 0.00 982.8
20260505122513 48 322 0.0 0.0 0.00 0.00 0.00 982.8
20260505122013 48 294 0.0 0.0 0.00 0.00 0.00 982.8
20260505121521 48 315 0.0 0.0 0.00 0.00 0.00 981.8
20260505121013 48 346 0.0 0.0 0.00 0.00 0.00 981.8
20260505120514 48 332 0.0 0.0 0.00 0.00 0.00 981.8
20260505120014 48 323 0.0 0.0 0.00 0.00 0.00 981.8
20260505115514 48 316 0.0 0.0 0.00 0.00 0.00 981.8
20260505115017 48 286 0.0 0.0 0.00 0.00 0.00 981.8
20260505114536 48 313 0.0 0.0 0.00 0.00 0.00 980.8
20260505114019 48 329 0.0 0.0 0.00 0.00 0.00 980.8
20260505113515 48 326 0.0 0.0 0.00 0.00 0.00 980.8
20260505113015 49 0 0.0 0.0 0.00 0.00 0.00 980.8
20260505112514 49 331 0.0 0.0 0.00 0.00 0.00 980.8
20260505112015 49 332 0.0 0.0 0.00 0.00 0.00 980.8
20260505111515 49 321 0.0 0.0 0.00 0.00 0.00 980.8
20260505111035 49 336 0.0 0.0 0.00 0.00 0.00 980.8
20260505110514 49 34 3.0 0.0 0.00 0.00 0.00 980.8
20260505102015 50 331 0.0 0.0 0.00 0.00 0.00 980.8
20260505101526 50 28 0.0 0.0 0.00 0.00 0.00 979.8
20260505101035 50 42 0.0 0.0 0.00 0.00 0.00 979.8
20260505100514 50 331 0.0 0.0 0.00 0.00 0.00 979.8
20260505100014 50 25 0.0 0.0 0.00 0.00 0.00 980.8
20260505095534 50 314 0.0 0.0 0.00 0.00 0.00 980.8
20260505095014 51 357 0.0 0.0 0.00 0.00 0.00 980.8
20260505094514 51 344 0.0 0.0 0.00 0.00 0.00 980.8
20260505094034 51 332 0.0 0.0 0.00 0.00 0.00 980.8
20260505093519 51 37 0.0 6.0 0.00 0.00 0.00 980.8
20260505093023 51 228 0.0 0.0 0.00 0.00 0.00 980.8
20260505092515 51 344 0.0 0.0 0.00 0.00 0.00 980.8
20260505092022 51 27 0.0 0.0 0.00 0.00 0.00 980.8
20260505091514 51 294 2.0 0.0 0.00 0.00 0.00 979.8
20260505091019 51 357 3.0 5.0 0.00 0.00 0.00 979.8
20260505090522 51 353 0.0 0.0 0.00 0.00 0.00 979.8
20260505090017 52 3 0.0 0.0 0.00 0.00 0.00 979.8
20260505085519 52 320 0.0 0.0 0.00 0.00 0.00 979.8
20260505085034 52 357 3.0 3.0 0.00 0.00 0.00 979.8
20260505084515 52 308 0.0 0.0 0.00 0.00 0.00 978.8
20260505084034 52 320 0.0 0.0 0.00 0.00 0.00 978.8
20260505083514 52 0 0.0 0.0 0.00 0.00 0.00 978.8
20260505083014 53 339 0.0 0.0 0.00 0.00 0.00 978.8
20260505082518 53 343 0.0 3.0 0.00 0.00 0.00 978.8
20260505082016 53 311 4.0 2.0 0.00 0.00 0.00 978.8
20260505081514 53 288 0.0 0.0 0.00 0.00 0.00 978.8
20260505081040 54 357 3.0 3.0 0.00 0.00 0.00 978.8
20260505080514 54 331 4.0 4.0 0.00 0.00 0.00 978.8
20260505080018 54 26 4.0 3.0 0.00 0.00 0.00 978.8
20260505075514 55 322 0.0 2.0 0.00 0.00 0.00 978.8
20260505075037 55 341 4.0 5.0 0.00 0.00 0.00 978.8
20260505074514 55 34 3.0 0.0 0.00 0.00 0.00 978.8
20260505074015 55 6 3.0 3.0 0.00 0.00 0.00 978.8
20260505073513 56 326 0.0 0.0 0.00 0.00 0.00 978.8
20260505073014 56 321 0.0 0.0 0.00 0.00 0.00 977.8
20260505072518 56 329 3.0 0.0 0.00 0.00 0.00 977.8
20260505072013 56 295 0.0 0.0 0.00 0.00 0.00 977.8
20260505071517 56 327 0.0 0.0 0.00 0.00 0.00 977.8
20260505071016 56 322 0.0 0.0 0.00 0.00 0.00 977.8
20260505070515 56 326 2.0 4.0 0.00 0.00 0.00 977.8
20260505070035 56 340 0.0 0.0 0.00 0.00 0.00 977.8
20260505065513 57 342 0.0 0.0 0.00 0.00 0.00 977.8
20260505065013 57 330 0.0 0.0 0.00 0.00 0.00 977.8
20260505064513 57 334 0.0 0.0 0.00 0.00 0.00 977.8
20260505064013 57 300 0.0 0.0 0.00 0.00 0.00 977.8
20260505063514 57 301 0.0 0.0 0.00 0.00 0.00 977.8
20260505063014 57 349 0.0 9.0 0.00 0.00 0.00 977.8
20260505062517 57 329 2.0 0.0 0.00 0.00 0.00 977.8
20260505062014 57 227 0.0 3.0 0.00 0.00 0.00 977.8
20260505061535 58 331 0.0 4.0 0.00 0.00 0.00 976.8
20260505061014 58 309 2.0 0.0 0.00 0.00 0.00 976.8
20260505060517 58 341 4.0 5.0 0.00 0.00 0.00 976.8
20260505060013 58 334 3.0 4.0 0.00 0.00 0.00 976.8
20260505055515 58 342 0.0 2.0 0.00 0.00 0.00 976.8
20260505055014 58 328 0.0 0.0 0.00 0.00 0.00 976.8
20260505054514 58 342 0.0 4.0 0.00 0.00 0.00 976.8
20260505054013 58 315 0.0 0.0 0.00 0.00 0.00 976.8
20260505053513 58 324 0.0 2.0 0.00 0.00 0.00 976.8
20260505053035 58 236 0.0 0.0 0.00 0.00 0.00 976.8
20260505052520 58 285 2.0 0.0 0.00 0.00 0.00 976.8
20260505052013 59 339 0.0 0.0 0.00 0.00 0.00 976.8
20260505051521 59 326 0.0 4.0 0.00 0.00 0.00 975.8
20260505051013 59 297 0.0 5.0 0.00 0.00 0.00 975.8
20260505050519 59 329 0.0 0.0 0.00 0.00 0.00 975.8
20260505041513 61 321 0.0 0.0 0.00 0.00 0.00 975.8
20260505041014 61 346 0.0 3.0 0.00 0.00 0.00 975.8
20260505040515 61 313 0.0 3.0 0.00 0.00 0.00 975.8
20260505040017 62 281 0.0 0.0 0.00 0.00 0.00 975.8
20260505035540 62 317 2.0 0.0 0.00 0.00 0.00 975.8
20260505035035 62 240 0.0 0.0 0.00 0.00 0.00 975.8
20260505034518 62 264 3.0 0.0 0.00 0.00 0.00 975.8
20260505034014 62 266 0.0 5.0 0.00 0.00 0.00 975.8
20260505033513 62 332 0.0 0.0 0.00 0.00 0.00 975.8
20260505033015 62 279 0.0 0.0 0.00 0.00 0.00 975.8
20260505032513 62 167 0.0 3.0 0.00 0.00 0.00 975.8
20260505032014 63 329 0.0 0.0 0.00 0.00 0.00 975.8
20260505031517 62 325 0.0 0.0 0.00 0.00 0.00 975.8
20260505031014 63 244 0.0 0.0 0.00 0.00 0.00 975.8
20260505030516 63 258 0.0 3.0 0.00 0.00 0.00 975.8
20260505030012 63 225 0.0 0.0 0.00 0.00 0.00 975.8
20260505025514 63 221 0.0 0.0 0.00 0.00 0.00 975.8
20260505025013 63 222 0.0 0.0 0.00 0.00 0.00 975.8
20260505024520 64 235 0.0 4.0 0.00 0.00 0.00 975.8
20260505024014 64 246 0.0 0.0 0.00 0.00 0.00 975.8
20260505023519 64 226 0.0 0.0 0.00 0.00 0.00 975.8
20260505023015 64 234 4.0 0.0 0.00 0.00 0.00 975.8
20260505022516 64 224 4.0 4.0 0.00 0.00 0.00 975.8
20260505022013 64 227 0.0 0.0 0.00 0.00 0.00 975.8
20260505021514 64 204 2.0 4.0 0.00 0.00 0.00 974.8
20260505021014 65 220 2.0 2.0 0.00 0.00 0.00 974.8
20260505020516 65 177 0.0 6.0 0.00 0.00 0.00 974.8
20260505020016 65 203 4.0 0.0 0.00 0.00 0.00 974.8
20260505015513 65 194 4.0 4.0 0.00 0.00 0.00 974.8
20260505015013 65 235 4.0 0.0 0.00 0.00 0.00 974.8
20260505014514 65 224 4.0 3.0 0.00 0.00 0.00 973.8
20260505014014 65 181 4.0 5.0 0.00 0.00 0.00 973.8
20260505013514 66 206 2.0 2.0 0.00 0.00 0.00 973.8
20260505013014 66 183 4.0 3.0 0.00 0.00 0.00 973.8
20260505012519 66 161 5.0 9.0 0.00 0.00 0.00 973.8
20260505012013 66 169 0.0 2.0 0.00 0.00 0.00 973.8
20260505011514 66 183 5.0 8.0 0.00 0.00 0.00 974.8
20260505011014 66 179 4.0 2.0 0.00 0.00 0.00 974.8
20260505010514 67 185 0.0 11.0 0.00 0.00 0.00 974.8
20260505010016 67 196 4.0 5.0 0.00 0.00 0.00 973.8
20260505005519 67 171 3.0 3.0 0.00 0.00 0.00 973.8
20260505005013 67 232 0.0 0.0 0.00 0.00 0.00 973.8
20260505004513 67 192 3.0 0.0 0.00 0.00 0.00 972.8
20260505004014 67 209 4.0 3.0 0.00 0.00 0.00 972.8
20260505003516 68 177 3.0 3.0 0.00 0.00 0.00 972.8
20260505003015 68 190 0.0 0.0 0.00 0.00 0.00 972.8
20260505002514 68 168 0.0 0.0 0.00 0.00 0.00 972.8
20260505002025 69 191 2.0 3.0 0.00 0.00 0.00 972.8
20260505001517 69 198 2.0 5.0 0.00 0.00 0.00 972.8
20260505001019 69 238 4.0 3.0 0.00 0.00 0.00 972.8
20260505000515 69 228 4.0 5.0 0.00 0.00 0.00 972.8
20260505000042 69 239 6.0 7.0 0.00 0.00 0.00 972.8
20260504235534 69 215 4.0 8.0 0.00 0.00 0.00 972.8
20260504235019 69 214 4.0 0.0 0.00 0.00 0.00 972.8
20260504234517 69 235 0.0 4.0 0.00 0.00 0.00 972.8
20260504234014 69 225 2.0 3.0 0.00 0.00 0.00 972.8
20260504233523 69 194 0.0 0.0 0.00 0.00 0.00 972.8
20260504233014 69 232 2.0 3.0 0.00 0.00 0.00 972.8
20260504232513 69 216 2.0 5.0 0.00 0.00 0.00 972.8
20260504232014 68 275 4.0 5.0 0.00 0.00 0.00 972.8
20260504231515 68 213 4.0 3.0 0.00 0.00 0.00 973.8
20260504231014 67 208 8.0 8.0 0.00 0.00 0.00 973.8